42P/Neujmin 3 (2015)

Japanese version
Home page
Updated on November 3, 2015

---------------------------------------------------------------------

* Profile

* Orbital Elements

Epoch 2015 Apr. 8.0 TT = JDT 2457120.5
T 2015 Apr. 8.23812 TT                                  MPCW
q   2.0279650            (2000.0)            P               Q
n   0.09153129     Peri.  147.13597     +0.46110187     +0.88667830
a   4.8762916      Node   150.28028     -0.82838838     +0.44405468
e   0.5841174      Incl.    3.98442     -0.31805307     +0.12890705
P  10.8
From 205 observations 1993 May 25-2015 May 22, mean residual 0".7.
     Nongravitational parameters A1 = +0.90, A2 = +0.1009.

* Magnitudes Graph

        m1 = 12.5 + 5 log d + 12.8 log r

---------------------------------------------------------------------

The orbital elements are published on M.P.E.C. 2015-K139.
The magnitudes graphs are made with Comet for Windows.

---------------------------------------------------------------------

Copyright(C) Seiichi Yoshida (comet@aerith.net). All rights reserved.